Back to catalog

SITRO-AIS-24

AliveCommunicationsSSO
NORAD 61741·PAYLOAD·🇷🇺 Russia
This satellite name has not been confirmed by official sources yet.

Launched Nov 4, 2024 from Vostochny Cosmodrome

Loading…

Next Passes (next 24 hours)

TLE

FreshSource: Space-Track

Epoch: Sep 14, 2026, 19:56 UTC

1 61741U 24199G   26257.83059731  .00002313  00000-0  20790-3 0  9992
2 61741  97.3224  90.1479 0013815 116.6745 243.5894 14.96505085145295

Track SITRO-AIS-24 in real time with AllMySat

Download on the App Store